USA602 KSFO-KPVU

Flight info

Callsign USA602
Flight time 1h 26m
Altitude 37000
Route TRUKN2 TIPRE Q126 INSLO DTA FFU
Aircraft A321/M-SDE3FGHIRWY/LB1

Departure

Time 2026-05-06 15:01
Airport San Francisco International Airport (KSFO)

Arrival

Time 2026-05-06 16:27
Airport Provo Municipal Airport (KPVU)
Time Latitude Longitude Altitude Speed Heading
2026-05-06 14:14 37.61333 -122.38371 16 ft 0 kts 263°
2026-05-06 14:49 37.61333 -122.38368 16 ft 3 kts 258°
2026-05-06 14:50 37.61327 -122.38364 18 ft 4 kts 186°
2026-05-06 14:50 37.61351 -122.38355 15 ft 4 kts 216°
2026-05-06 14:50 37.61373 -122.38336 15 ft 4 kts 204°
2026-05-06 14:50 37.61389 -122.38329 15 ft 4 kts 129°
2026-05-06 14:51 37.61393 -122.38338 15 ft 0 kts 118°
2026-05-06 14:53 37.61393 -122.38336 15 ft 2 kts 118°
2026-05-06 14:53 37.61378 -122.38301 14 ft 8 kts 118°
2026-05-06 14:54 37.61347 -122.38221 16 ft 10 kts 101°
2026-05-06 14:54 37.61378 -122.38157 15 ft 8 kts 36°
2026-05-06 14:54 37.61402 -122.38104 16 ft 9 kts 88°
2026-05-06 14:54 37.61381 -122.38009 16 ft 12 kts 118°
2026-05-06 14:55 37.61340 -122.37916 15 ft 12 kts 119°
2026-05-06 14:55 37.61299 -122.37825 17 ft 11 kts 120°
2026-05-06 14:55 37.61262 -122.37743 20 ft 12 kts 120°
2026-05-06 14:55 37.61224 -122.37642 18 ft 13 kts 103°
2026-05-06 14:56 37.61245 -122.37537 19 ft 12 kts 63°
2026-05-06 14:56 37.61303 -122.37469 21 ft 13 kts 29°
2026-05-06 14:56 37.61388 -122.37411 22 ft 14 kts 28°
2026-05-06 14:56 37.61477 -122.37353 22 ft 14 kts 27°
2026-05-06 14:57 37.61544 -122.37265 23 ft 17 kts 68°
2026-05-06 14:57 37.61562 -122.37106 23 ft 19 kts 115°
2026-05-06 14:57 37.61493 -122.36961 24 ft 19 kts 125°
2026-05-06 14:57 37.61402 -122.36825 19 ft 21 kts 131°
2026-05-06 14:58 37.61319 -122.36668 19 ft 22 kts 117°
2026-05-06 14:58 37.61250 -122.36499 16 ft 17 kts 118°
2026-05-06 14:58 37.61210 -122.36403 18 ft 11 kts 118°
2026-05-06 14:58 37.61175 -122.36320 19 ft 11 kts 118°
2026-05-06 14:59 37.61136 -122.36228 18 ft 15 kts 118°
2026-05-06 14:59 37.61117 -122.36110 18 ft 14 kts 62°
2026-05-06 14:59 37.61200 -122.36042 16 ft 14 kts 27°
2026-05-06 14:59 37.61272 -122.36080 15 ft 12 kts 298°
2026-05-06 15:00 37.61311 -122.36180 15 ft 13 kts 297°
2026-05-06 15:00 37.61392 -122.36374 13 ft 58 kts 297°
2026-05-06 15:00 37.61733 -122.37176 21 ft 148 kts 298°
2026-05-06 15:00 37.62296 -122.38506 563 ft 173 kts 299°
2026-05-06 15:01 37.62901 -122.39793 1728 ft 170 kts 308°
2026-05-06 15:01 37.63930 -122.40479 2439 ft 175 kts 356°
2026-05-06 15:01 37.65091 -122.39904 2691 ft 197 kts 45°
2026-05-06 15:01 37.65828 -122.38331 2878 ft 221 kts 66°
2026-05-06 15:02 37.66413 -122.36412 3142 ft 247 kts 69°
2026-05-06 15:02 37.67024 -122.34333 3736 ft 260 kts 68°
2026-05-06 15:02 37.67703 -122.32191 4580 ft 265 kts 66°
2026-05-06 15:02 37.68450 -122.30029 5439 ft 269 kts 65°
2026-05-06 15:03 37.69244 -122.27870 6280 ft 272 kts 63°
2026-05-06 15:03 37.70064 -122.25732 7092 ft 275 kts 62°
2026-05-06 15:03 37.70919 -122.23553 7898 ft 279 kts 62°
2026-05-06 15:03 37.71799 -122.21337 8702 ft 282 kts 61°
2026-05-06 15:04 37.72705 -122.19126 9453 ft 285 kts 60°
2026-05-06 15:04 37.73647 -122.16899 10182 ft 288 kts 59°
2026-05-06 15:04 37.74618 -122.14632 10478 ft 308 kts 59°
2026-05-06 15:04 37.75681 -122.12153 10617 ft 331 kts 60°
2026-05-06 15:05 37.76813 -122.09496 10747 ft 352 kts 60°
2026-05-06 15:05 37.77994 -122.06701 11100 ft 364 kts 60°
2026-05-06 15:05 37.79177 -122.03880 11684 ft 368 kts 60°
2026-05-06 15:05 37.80381 -122.00995 12325 ft 372 kts 60°
2026-05-06 15:06 37.81591 -121.98090 12992 ft 373 kts 60°
2026-05-06 15:06 37.82792 -121.95207 13614 ft 375 kts 60°
2026-05-06 15:06 37.84013 -121.92282 14220 ft 377 kts 60°
2026-05-06 15:06 37.85245 -121.89338 14816 ft 379 kts 60°
2026-05-06 15:07 37.86481 -121.86382 15382 ft 381 kts 60°
2026-05-06 15:07 37.87721 -121.83408 15917 ft 383 kts 60°
2026-05-06 15:07 37.88969 -121.80411 16443 ft 385 kts 60°
2026-05-06 15:07 37.90223 -121.77397 16931 ft 387 kts 60°
2026-05-06 15:08 37.91467 -121.74407 17403 ft 388 kts 60°
2026-05-06 15:08 37.92730 -121.71374 17876 ft 390 kts 60°
2026-05-06 15:08 37.94000 -121.68318 18324 ft 391 kts 60°
2026-05-06 15:08 37.95272 -121.65252 18762 ft 394 kts 60°
2026-05-06 15:09 37.96547 -121.62176 19179 ft 396 kts 60°
2026-05-06 15:09 37.97823 -121.59102 19587 ft 399 kts 60°
2026-05-06 15:09 37.99121 -121.55977 20003 ft 401 kts 60°
2026-05-06 15:09 38.00425 -121.52827 20424 ft 404 kts 60°
2026-05-06 15:10 38.01731 -121.49662 20842 ft 406 kts 60°
2026-05-06 15:10 38.03046 -121.46466 21247 ft 409 kts 60°
2026-05-06 15:10 38.04365 -121.43252 21645 ft 412 kts 60°
2026-05-06 15:10 38.05675 -121.40054 22038 ft 415 kts 60°
2026-05-06 15:11 38.07014 -121.36785 22430 ft 417 kts 60°
2026-05-06 15:11 38.08360 -121.33504 22809 ft 420 kts 60°
2026-05-06 15:11 38.09700 -121.30237 23196 ft 421 kts 60°
2026-05-06 15:11 38.11061 -121.26927 23579 ft 424 kts 60°
2026-05-06 15:12 38.12430 -121.23597 23948 ft 426 kts 60°
2026-05-06 15:12 38.13800 -121.20247 24299 ft 428 kts 60°
2026-05-06 15:12 38.15176 -121.16869 24660 ft 430 kts 60°
2026-05-06 15:12 38.16536 -121.13529 25001 ft 433 kts 60°
2026-05-06 15:13 38.17930 -121.10109 25348 ft 435 kts 60°
2026-05-06 15:13 38.19323 -121.06686 25689 ft 436 kts 60°
2026-05-06 15:13 38.20492 -121.03100 25997 ft 442 kts 69°
2026-05-06 15:13 38.21212 -120.99271 26302 ft 447 kts 76°
2026-05-06 15:14 38.21761 -120.95370 26606 ft 449 kts 76°
2026-05-06 15:14 38.22305 -120.91510 26882 ft 450 kts 76°
2026-05-06 15:14 38.22864 -120.87572 27152 ft 452 kts 76°
2026-05-06 15:14 38.23425 -120.83638 27389 ft 453 kts 76°
2026-05-06 15:15 38.23988 -120.79687 27634 ft 454 kts 76°
2026-05-06 15:15 38.24550 -120.75719 27858 ft 455 kts 76°
2026-05-06 15:15 38.25103 -120.71796 28096 ft 455 kts 76°
2026-05-06 15:15 38.25659 -120.67824 28424 ft 453 kts 76°
2026-05-06 15:16 38.26208 -120.63876 28736 ft 451 kts 76°
2026-05-06 15:16 38.26753 -120.59949 29043 ft 450 kts 76°
2026-05-06 15:16 38.27296 -120.56025 29344 ft 449 kts 76°
2026-05-06 15:16 38.27835 -120.52153 29640 ft 447 kts 76°
2026-05-06 15:17 38.28377 -120.48252 29918 ft 446 kts 76°
2026-05-06 15:17 38.28915 -120.44375 30187 ft 444 kts 76°
2026-05-06 15:17 38.29443 -120.40552 30451 ft 444 kts 76°
2026-05-06 15:17 38.29976 -120.36691 30746 ft 442 kts 76°
2026-05-06 15:18 38.30507 -120.32831 31039 ft 441 kts 76°
2026-05-06 15:18 38.31034 -120.28987 31320 ft 440 kts 76°
2026-05-06 15:18 38.31555 -120.25151 31612 ft 440 kts 76°
2026-05-06 15:18 38.32075 -120.21318 31915 ft 438 kts 76°
2026-05-06 15:19 38.32593 -120.17501 32221 ft 437 kts 76°
2026-05-06 15:19 38.33103 -120.13733 32491 ft 436 kts 76°
2026-05-06 15:19 38.33618 -120.09917 32754 ft 435 kts 76°
2026-05-06 15:19 38.34129 -120.06107 33025 ft 434 kts 75°
2026-05-06 15:20 38.34638 -120.02312 33315 ft 433 kts 75°
2026-05-06 15:20 38.35139 -119.98580 33567 ft 433 kts 75°
2026-05-06 15:20 38.35645 -119.94797 33828 ft 432 kts 75°
2026-05-06 15:20 38.36148 -119.91020 34070 ft 431 kts 75°
2026-05-06 15:21 38.36648 -119.87249 34321 ft 431 kts 75°
2026-05-06 15:21 38.37148 -119.83494 34578 ft 430 kts 75°
2026-05-06 15:21 38.37651 -119.79730 34877 ft 429 kts 75°
2026-05-06 15:21 38.38141 -119.76038 35154 ft 428 kts 75°
2026-05-06 15:22 38.38637 -119.72300 35404 ft 427 kts 75°
2026-05-06 15:22 38.39130 -119.68555 35675 ft 426 kts 75°
2026-05-06 15:22 38.39618 -119.64821 35935 ft 425 kts 75°
2026-05-06 15:22 38.40099 -119.61102 36142 ft 425 kts 75°
2026-05-06 15:23 38.40580 -119.57384 36366 ft 425 kts 75°
2026-05-06 15:23 38.41063 -119.53664 36590 ft 424 kts 75°
2026-05-06 15:23 38.41542 -119.49953 36805 ft 424 kts 75°
2026-05-06 15:23 38.42019 -119.46253 37061 ft 422 kts 75°
2026-05-06 15:24 38.42496 -119.42569 37204 ft 420 kts 75°
2026-05-06 15:24 38.43433 -119.35303 37239 ft 415 kts 75°
2026-05-06 15:25 38.44363 -119.28086 37239 ft 414 kts 74°
2026-05-06 15:25 38.45288 -119.20814 37235 ft 414 kts 75°
2026-05-06 15:26 38.46202 -119.13554 37226 ft 415 kts 75°
2026-05-06 15:26 38.47120 -119.06282 37232 ft 415 kts 74°
2026-05-06 15:27 38.48032 -118.98992 37237 ft 416 kts 75°
2026-05-06 15:27 38.48935 -118.91744 37241 ft 416 kts 75°
2026-05-06 15:28 38.49841 -118.84424 37240 ft 416 kts 75°
2026-05-06 15:28 38.50734 -118.77172 37238 ft 416 kts 75°
2026-05-06 15:29 38.51634 -118.69856 37234 ft 416 kts 75°
2026-05-06 15:29 38.52526 -118.62543 37235 ft 416 kts 74°
2026-05-06 15:30 38.53408 -118.55284 37237 ft 416 kts 74°
2026-05-06 15:30 38.54294 -118.47964 37235 ft 416 kts 75°
2026-05-06 15:31 38.55172 -118.40652 37235 ft 416 kts 75°
2026-05-06 15:31 38.56041 -118.33339 37235 ft 416 kts 75°
2026-05-06 15:32 38.57331 -118.22425 37239 ft 415 kts 75°
2026-05-06 15:32 38.58200 -118.15132 37233 ft 415 kts 75°
2026-05-06 15:33 38.59062 -118.07853 37234 ft 415 kts 75°
2026-05-06 15:33 38.59911 -118.00552 37231 ft 415 kts 75°
2026-05-06 15:34 38.60750 -117.93302 37230 ft 415 kts 75°
2026-05-06 15:34 38.61591 -117.86010 37228 ft 414 kts 75°
2026-05-06 15:35 38.62423 -117.78732 37226 ft 414 kts 75°
2026-05-06 15:35 38.63256 -117.71457 37220 ft 413 kts 75°
2026-05-06 15:36 38.64081 -117.64184 37222 ft 413 kts 75°
2026-05-06 15:36 38.64902 -117.56887 37216 ft 414 kts 75°
2026-05-06 15:37 38.65716 -117.49644 37216 ft 414 kts 75°
2026-05-06 15:37 38.66537 -117.42354 37215 ft 414 kts 75°
2026-05-06 15:38 38.67347 -117.35049 37216 ft 415 kts 75°
2026-05-06 15:38 38.68157 -117.27734 37216 ft 414 kts 73°
2026-05-06 15:39 38.69014 -117.21719 37217 ft 413 kts 71°
2026-05-06 15:39 38.70377 -117.13341 37226 ft 413 kts 71°
2026-05-06 15:40 38.71330 -117.07295 37234 ft 413 kts 72°
2026-05-06 15:40 38.72405 -117.00110 37236 ft 414 kts 72°
2026-05-06 15:41 38.73463 -116.92871 37228 ft 413 kts 72°
2026-05-06 15:41 38.74527 -116.85631 37232 ft 414 kts 72°
2026-05-06 15:42 38.75599 -116.78366 37230 ft 414 kts 72°
2026-05-06 15:42 38.76656 -116.71168 37231 ft 413 kts 72°
2026-05-06 15:43 38.77718 -116.63909 37231 ft 414 kts 72°
2026-05-06 15:43 38.78776 -116.56653 37226 ft 414 kts 72°
2026-05-06 15:44 38.79826 -116.49383 37228 ft 414 kts 72°
2026-05-06 15:44 38.80868 -116.42123 37233 ft 413 kts 72°
2026-05-06 15:45 38.81903 -116.34916 37226 ft 413 kts 72°
2026-05-06 15:45 38.82939 -116.27644 37228 ft 414 kts 72°
2026-05-06 15:46 38.83967 -116.20386 37229 ft 414 kts 72°
2026-05-06 15:46 38.84994 -116.13110 37230 ft 414 kts 72°
2026-05-06 15:47 38.86014 -116.05885 37227 ft 414 kts 72°
2026-05-06 15:47 38.87043 -115.98605 37228 ft 414 kts 72°
2026-05-06 15:48 38.88061 -115.91330 37220 ft 414 kts 72°
2026-05-06 15:48 38.89070 -115.84047 37218 ft 414 kts 72°
2026-05-06 15:49 38.90073 -115.76771 37218 ft 413 kts 72°
2026-05-06 15:49 38.91070 -115.69544 37215 ft 413 kts 72°
2026-05-06 15:50 38.92068 -115.62268 37209 ft 413 kts 72°
2026-05-06 15:50 38.93046 -115.55040 37207 ft 413 kts 72°
2026-05-06 15:51 38.94031 -115.47758 37212 ft 414 kts 72°
2026-05-06 15:51 38.95020 -115.40456 37220 ft 414 kts 72°
2026-05-06 15:52 38.95997 -115.33167 37218 ft 414 kts 72°
2026-05-06 15:52 38.96962 -115.25915 37220 ft 415 kts 72°
2026-05-06 15:53 38.97938 -115.18595 37223 ft 415 kts 72°
2026-05-06 15:53 38.98909 -115.11288 37226 ft 414 kts 72°
2026-05-06 15:54 38.99863 -115.04033 37223 ft 414 kts 72°
2026-05-06 15:54 39.00817 -114.96727 37222 ft 414 kts 72°
2026-05-06 15:55 39.01767 -114.89422 37223 ft 414 kts 72°
2026-05-06 15:55 39.02714 -114.82100 37226 ft 414 kts 72°
2026-05-06 15:56 39.03642 -114.74845 37223 ft 414 kts 72°
2026-05-06 15:56 39.04578 -114.67533 37221 ft 413 kts 72°
2026-05-06 15:57 39.05500 -114.60281 37222 ft 413 kts 72°
2026-05-06 15:57 39.06430 -114.52986 37221 ft 412 kts 72°
2026-05-06 15:58 39.07358 -114.45697 37219 ft 412 kts 72°
2026-05-06 15:58 39.08268 -114.38440 37215 ft 413 kts 72°
2026-05-06 15:59 39.09180 -114.31128 37212 ft 413 kts 72°
2026-05-06 15:59 39.10087 -114.23828 37212 ft 412 kts 72°
2026-05-06 16:00 39.10984 -114.16591 37211 ft 412 kts 72°
2026-05-06 16:00 39.11887 -114.09292 37207 ft 412 kts 72°
2026-05-06 16:01 39.12782 -114.01988 37208 ft 416 kts 72°
2026-05-06 16:01 39.13695 -113.94541 37204 ft 425 kts 72°
2026-05-06 16:02 39.14591 -113.87095 37175 ft 416 kts 72°
2026-05-06 16:02 39.15462 -113.79794 37174 ft 414 kts 72°
2026-05-06 16:03 39.16343 -113.72453 37175 ft 414 kts 72°
2026-05-06 16:03 39.17223 -113.65106 37167 ft 415 kts 72°
2026-05-06 16:04 39.18088 -113.57795 37169 ft 415 kts 72°
2026-05-06 16:04 39.18958 -113.50436 37173 ft 415 kts 73°
2026-05-06 16:05 39.19822 -113.43056 37175 ft 416 kts 73°
2026-05-06 16:05 39.20681 -113.35673 37180 ft 416 kts 73°
2026-05-06 16:06 39.21530 -113.28326 37177 ft 417 kts 73°
2026-05-06 16:06 39.22380 -113.20926 37179 ft 417 kts 73°
2026-05-06 16:07 39.23221 -113.13512 37179 ft 417 kts 73°
2026-05-06 16:07 39.24062 -113.06129 37181 ft 418 kts 73°
2026-05-06 16:08 39.24905 -112.98723 37170 ft 417 kts 73°
2026-05-06 16:08 39.25741 -112.91294 37165 ft 418 kts 73°
2026-05-06 16:09 39.26572 -112.83842 37172 ft 419 kts 73°
2026-05-06 16:09 39.27399 -112.76386 37164 ft 419 kts 73°
2026-05-06 16:10 39.28218 -112.68983 37165 ft 420 kts 73°
2026-05-06 16:10 39.28625 -112.65257 37003 ft 419 kts 73°
2026-05-06 16:10 39.29031 -112.61525 36397 ft 418 kts 73°
2026-05-06 16:11 39.29605 -112.57896 35732 ft 406 kts 64°
2026-05-06 16:11 39.30661 -112.54586 35005 ft 395 kts 53°
2026-05-06 16:11 39.32142 -112.51698 34232 ft 386 kts 44°
2026-05-06 16:11 39.34026 -112.49203 33366 ft 381 kts 34°
2026-05-06 16:12 39.36148 -112.47274 32556 ft 377 kts 26°
2026-05-06 16:12 39.38507 -112.45813 31664 ft 377 kts 21°
2026-05-06 16:12 39.40919 -112.44445 30823 ft 378 kts 21°
2026-05-06 16:12 39.43337 -112.43061 29915 ft 381 kts 21°
2026-05-06 16:13 39.45776 -112.41658 28931 ft 385 kts 21°
2026-05-06 16:13 39.48240 -112.40235 27940 ft 389 kts 21°
2026-05-06 16:13 39.50688 -112.38825 26949 ft 391 kts 21°
2026-05-06 16:13 39.53186 -112.37387 25904 ft 394 kts 21°
2026-05-06 16:14 39.55701 -112.35937 24848 ft 397 kts 21°
2026-05-06 16:14 39.58231 -112.34478 23790 ft 398 kts 21°
2026-05-06 16:14 39.60763 -112.33015 22849 ft 397 kts 21°
2026-05-06 16:14 39.63278 -112.31558 22074 ft 392 kts 21°
2026-05-06 16:15 39.65743 -112.30127 21326 ft 386 kts 21°
2026-05-06 16:15 39.68178 -112.28710 20600 ft 379 kts 21°
2026-05-06 16:15 39.70568 -112.27322 19888 ft 373 kts 21°
2026-05-06 16:15 39.72896 -112.25972 19204 ft 367 kts 21°
2026-05-06 16:16 39.75214 -112.24629 18531 ft 361 kts 21°
2026-05-06 16:16 39.77501 -112.23304 17880 ft 359 kts 21°
2026-05-06 16:16 39.79775 -112.21985 17230 ft 356 kts 21°
2026-05-06 16:16 39.82015 -112.20687 16626 ft 356 kts 21°
2026-05-06 16:17 39.84279 -112.19373 16023 ft 356 kts 21°
2026-05-06 16:17 39.86538 -112.18058 15319 ft 355 kts 20°
2026-05-06 16:17 39.88803 -112.16740 14708 ft 355 kts 20°
2026-05-06 16:17 39.91062 -112.15426 14132 ft 356 kts 20°
2026-05-06 16:18 39.93324 -112.14107 13583 ft 356 kts 20°
2026-05-06 16:18 39.95558 -112.12802 13019 ft 357 kts 20°
2026-05-06 16:18 39.97830 -112.11475 12479 ft 357 kts 20°
2026-05-06 16:18 40.00108 -112.10145 11911 ft 357 kts 20°
2026-05-06 16:19 40.02375 -112.08818 11347 ft 355 kts 20°
2026-05-06 16:19 40.04585 -112.07519 11156 ft 339 kts 21°
2026-05-06 16:19 40.06680 -112.06283 11028 ft 321 kts 21°
2026-05-06 16:19 40.08653 -112.05120 10896 ft 307 kts 20°
2026-05-06 16:20 40.10557 -112.04002 10733 ft 290 kts 21°
2026-05-06 16:20 40.12390 -112.02926 10306 ft 286 kts 21°
2026-05-06 16:20 40.14207 -112.01870 10069 ft 284 kts 21°
2026-05-06 16:20 40.16015 -112.00813 9877 ft 282 kts 21°
2026-05-06 16:21 40.17812 -111.99763 9762 ft 284 kts 21°
2026-05-06 16:21 40.19587 -111.98722 9643 ft 284 kts 22°
2026-05-06 16:21 40.21390 -111.97661 9512 ft 283 kts 22°
2026-05-06 16:21 40.23184 -111.96603 9393 ft 283 kts 22°
2026-05-06 16:22 40.24987 -111.95540 9117 ft 285 kts 22°
2026-05-06 16:22 40.26743 -111.94387 8986 ft 276 kts 32°
2026-05-06 16:22 40.28137 -111.92793 8944 ft 260 kts 49°
2026-05-06 16:22 40.29164 -111.90932 8836 ft 244 kts 53°
2026-05-06 16:23 40.30104 -111.89177 8701 ft 228 kts 53°
2026-05-06 16:23 40.30999 -111.87523 8306 ft 218 kts 52°
2026-05-06 16:23 40.31869 -111.85914 7825 ft 214 kts 54°
2026-05-06 16:23 40.32414 -111.84123 7375 ft 212 kts 83°
2026-05-06 16:24 40.32236 -111.82313 7263 ft 192 kts 110°
2026-05-06 16:24 40.31566 -111.80938 7172 ft 169 kts 134°
2026-05-06 16:24 40.30677 -111.80048 6955 ft 159 kts 146°
2026-05-06 16:24 40.29762 -111.79234 6648 ft 158 kts 146°
2026-05-06 16:25 40.28852 -111.78428 6320 ft 158 kts 146°
2026-05-06 16:25 40.27917 -111.77626 5929 ft 161 kts 148°
2026-05-06 16:25 40.26982 -111.76831 5617 ft 158 kts 147°
2026-05-06 16:25 40.26122 -111.76015 5405 ft 150 kts 139°
2026-05-06 16:26 40.25264 -111.75232 5148 ft 149 kts 144°
2026-05-06 16:26 40.24413 -111.74479 4874 ft 146 kts 143°
2026-05-06 16:26 40.23575 -111.73743 4671 ft 149 kts 145°
2026-05-06 16:26 40.22736 -111.72991 4508 ft 141 kts 146°
2026-05-06 16:27 40.22098 -111.72422 4507 ft 65 kts 146°
2026-05-06 16:27 40.21903 -111.72224 4502 ft 15 kts 107°
2026-05-06 16:27 40.21905 -111.72147 4505 ft 6 kts 81°
2026-05-06 16:27 40.21909 -111.72119 4503 ft 0 kts 78°
2026-05-06 16:29 40.21914 -111.72092 4507 ft 10 kts 80°
2026-05-06 16:29 40.21874 -111.72008 4506 ft 11 kts 142°
2026-05-06 16:29 40.21810 -111.71951 4506 ft 11 kts 146°
2026-05-06 16:30 40.21747 -111.71897 4503 ft 11 kts 146°
2026-05-06 16:30 40.21707 -111.71862 4507 ft 10 kts 147°
2026-05-06 16:30 40.21627 -111.71792 4506 ft 10 kts 146°
2026-05-06 16:30 40.21557 -111.71732 4504 ft 12 kts 147°
2026-05-06 16:31 40.21486 -111.71668 4506 ft 12 kts 145°
2026-05-06 16:31 40.21417 -111.71606 4506 ft 12 kts 145°
2026-05-06 16:31 40.21347 -111.71543 4503 ft 12 kts 146°
2026-05-06 16:31 40.21277 -111.71481 4504 ft 12 kts 146°
2026-05-06 16:32 40.21220 -111.71410 4504 ft 10 kts 98°
2026-05-06 16:32 40.21245 -111.71328 4503 ft 9 kts 60°
2026-05-06 16:32 40.21274 -111.71264 4502 ft 4 kts 59°
2026-05-06 16:32 40.21276 -111.71260 4502 ft 0 kts 58°